This is the latest recevied weather packets stored in our database for station/object KE6LRO. If no packets are shown the sender has not sent any weather packets the latest 10 day(s).
| Time | Temp. | Humidity | Pressure | Rain* | Wind** | Luminosity | Snow |
|---|---|---|---|---|---|---|---|
| 1778111444 | 22.78° C | 31% | 1015.6 hPa | 0 mm | - | 170 W/m² | - |
| 1778111142 | 22.78° C | 32% | 1015.4 hPa | 0 mm | - | 197 W/m² | - |
| 1778110839 | 22.78° C | 31% | 1015.4 hPa | 0 mm | - | 261 W/m² | - |
| 1778110536 | 22.78° C | 32% | 1015.6 hPa | 0 mm | - | 216 W/m² | - |
| 1778110233 | 22.78° C | 32% | 1015.3 hPa | 0 mm | - | 261 W/m² | - |
| 1778109929 | 22.22° C | 33% | 1015.4 hPa | 0 mm | - | 298 W/m² | - |
| 1778109619 | 22.78° C | 34% | 1015.4 hPa | 0 mm | - | 201 W/m² | - |
| 1778109317 | 22.22° C | 34% | 1015.4 hPa | 0 mm | - | 251 W/m² | - |
| 1778109014 | 22.22° C | 34% | 1015.3 hPa | 0 mm | - | 229 W/m² | - |
| 1778108710 | 22.78° C | 35% | 1015.4 hPa | 0 mm | - | 241 W/m² | - |
| 1778108408 | 22.22° C | 35% | 1015.4 hPa | 0 mm | - | 366 W/m² | - |
| 1778108104 | 22.22° C | 36% | 1015.4 hPa | 0 mm | - | 213 W/m² | - |
| 1778107801 | 22.78° C | 32% | 1015.5 hPa | 0 mm | - | 171 W/m² | - |
| 1778107498 | 22.22° C | 33% | 1015.7 hPa | 0 mm | - | 263 W/m² | - |
| 1778107194 | 22.22° C | 34% | 1015.6 hPa | 0 mm | - | 157 W/m² | - |
| 1778106890 | 21.67° C | 32% | 1015.5 hPa | 0 mm | - | 130 W/m² | - |
| 1778106587 | 22.22° C | 31% | 1015.6 hPa | 0 mm | - | 133 W/m² | - |
| 1778106284 | 22.22° C | 32% | 1015.7 hPa | 0 mm | - | 136 W/m² | - |
| 1778105981 | 22.22° C | 33% | 1015.5 hPa | 0 mm | - | 464 W/m² | - |
| 1778105678 | 22.22° C | 32% | 1015.7 hPa | 0 mm | - | 180 W/m² | - |
| 1778105376 | 22.22° C | 34% | 1015.7 hPa | 0 mm | - | 224 W/m² | - |
| 1778105071 | 22.22° C | 34% | 1015.9 hPa | 0 mm | - | 242 W/m² | - |
| 1778104768 | 22.22° C | 39% | 1016.1 hPa | 0 mm | - | 411 W/m² | - |
| 1778104464 | 22.22° C | 33% | 1015.9 hPa | 0 mm | - | 210 W/m² | - |
| 1778104160 | 22.22° C | 35% | 1016.3 hPa | 0 mm | - | 722 W/m² | - |
* Rain latest hour (hover to see other rain measurements)
** Current wind speed in m/s (hover to see current wind gust speed)